GFSSE_sfc_dewp_159.txt.gz
Dewpoint
71 73 74 75 76 77 77 78 78 77 77 77 77 77 77 76 75 75 76 76 75 75 75 74 75 75 74 75 75 74 74 74 74 74 74 73 73 73 74 73 71 68 73
73 73 75 76 77 77 77 77 77 78 77 77 77 77 77 76 76 76 76 76 76 74 73 73 74 75 75 74 74 74 74 73 73 73 74 74 73 73 73 73 73 71 73
71 73 72 77 77 77 77 77 77 77 76 76 76 76 76 77 76 76 76 75 75 74 73 73 73 74 74 74 74 74 74 73 73 73 73 70 69 72 71 72 73 71 73
70 71 71 77 77 77 77 78 78 77 76 76 76 76 76 76 76 76 76 75 74 73 74 74 74 74 74 74 73 74 74 73 73 73 71 69 66 73 72 73 71 71 72
71 71 72 76 77 76 76 78 77 77 76 76 76 76 75 75 75 73 72 71 70 71 72 72 73 73 73 73 72 72 72 72 72 70 70 69 68 70 71 71 73 73 72
72 70 75 76 75 76 76 77 77 77 77 76 76 76 75 73 72 72 74 75 75 73 73 73 73 73 73 72 72 72 73 72 72 70 71 70 67 71 72 73 73 72 70
72 70 71 77 76 75 76 77 76 76 76 76 76 75 75 73 72 74 75 75 73 73 73 73 73 73 72 71 72 72 72 72 70 70 71 71 70 70 71 73 73 71 69
71 69 72 76 76 75 76 76 76 76 76 76 76 76 75 73 73 72 73 75 74 73 74 73 73 73 73 73 73 73 72 72 67 69 70 71 73 71 71 71 71 72 70
71 70 73 73 74 75 75 75 76 76 75 75 75 75 75 75 74 74 73 72 72 72 72 73 73 73 73 72 73 73 73 73 68 68 68 70 74 73 73 74 72 72 70
71 72 74 75 73 72 72 75 76 75 74 74 74 74 75 75 74 74 74 74 73 72 72 72 73 73 74 73 73 73 73 72 66 66 68 68 73 74 73 74 74 72 71
69 72 74 73 75 75 74 74 74 74 72 73 73 74 74 73 73 72 73 73 72 72 73 73 73 74 74 75 74 74 73 66 67 67 67 73 73 74 73 74 75 73 72
66 69 70 72 72 73 71 75 74 72 69 72 72 74 73 73 74 73 74 75 74 74 73 73 74 73 71 68 69 72 68 69 68 68 68 74 73 73 73 75 76 75 74
68 69 71 72 73 71 72 72 72 71 71 72 74 74 72 72 73 72 72 71 73 72 70 71 71 70 71 70 68 70 71 71 69 68 69 74 75 74 74 75 76 76 76
68 69 70 71 73 72 71 71 71 71 72 71 71 73 71 69 72 73 72 72 73 73 73 72 72 72 71 71 71 70 69 68 69 68 70 73 74 75 75 76 75 76 76
68 69 71 72 73 74 73 70 71 71 68 68 69 70 70 69 71 71 71 72 71 72 72 76 74 73 72 71 71 71 69 68 67 68 69 73 74 75 75 75 75 75 75
68 69 70 71 72 74 73 73 71 71 70 71 71 72 74 72 73 71 71 70 71 72 72 72 73 73 73 71 70 70 70 68 68 69 68 70 74 74 75 76 76 75 76
68 69 69 70 71 73 73 72 71 71 71 71 72 74 75 75 75 75 73 72 71 73 74 73 73 73 72 71 72 72 70 70 69 70 70 70 69 71 72 75 75 76 75
69 70 70 69 70 72 72 71 71 72 72 72 73 73 74 75 75 75 73 72 72 72 72 73 72 72 71 69 70 69 70 70 70 70 70 69 68 67 70 73 74 75 76
70 71 71 72 71 71 72 72 73 74 73 73 73 73 73 73 73 74 72 72 74 72 72 73 72 73 71 70 68 66 68 67 67 66 69 69 69 68 67 71 73 74 74
70 71 72 72 73 73 72 73 72 72 73 73 72 72 74 72 74 74 72 73 74 72 72 73 74 73 72 70 68 66 66 64 65 68 68 66 66 68 69 71 71 69 73
70 71 72 73 74 73 72 71 71 70 71 72 72 74 74 74 74 74 71 72 73 73 74 74 73 73 69 70 67 60 60 63 63 66 61 62 63 65 69 69 70 70 68
68 71 72 73 74 74 72 73 72 72 71 72 73 74 74 74 75 74 75 73 75 73 75 75 74 71 70 69 63 59 54 56 63 59 64 60 65 62 62 64 67 66 68
68 70 71 73 73 74 74 73 73 73 73 72 72 71 73 74 75 75 74 75 75 74 69 71 71 70 64 66 68 62 54 53 58 59 61 62 64 63 63 62 63 64 66
67 69 72 73 73 73 75 73 74 71 70 70 71 71 72 74 75 75 75 74 73 71 70 70 70 68 68 62 64 67 67 66 58 56 58 60 62 61 62 59 59 62 63
66 68 70 73 74 75 74 75 73 73 71 71 71 74 75 74 72 70 70 69 71 68 70 69 68 68 66 65 63 63 64 62 64 63 57 55 56 56 55 55 56 56 58
66 67 69 72 75 74 74 74 74 75 74 71 72 71 71 71 70 70 68 70 71 69 67 66 68 67 67 66 65 65 62 61 59 60 57 55 53 52 50 51 53 55 56

GFSSE_sfc_dewp_165.txt.gz
Dewpoint
71 73 75 77 77 77 77 76 77 76 76 76 76 75 75 76 76 76 76 76 75 76 75 75 75 76 75 74 74 74 74 74 74 73 73 74 74 73 72 71 71 68 73
71 72 76 77 78 77 77 77 77 77 76 76 77 76 75 75 76 76 75 75 73 74 75 75 75 74 74 75 74 74 74 74 74 73 73 73 73 72 72 74 73 71 74
70 70 72 77 77 77 77 76 76 76 76 76 76 76 76 75 75 76 75 74 74 73 74 75 74 75 74 74 74 73 73 73 73 73 74 69 67 72 72 73 72 72 72
68 67 69 77 77 76 76 76 76 75 75 76 75 76 76 76 76 76 74 74 75 74 74 74 75 73 74 74 74 74 73 72 72 73 69 65 66 73 74 71 71 73 73
67 67 72 77 76 75 76 77 76 76 76 76 76 76 75 74 72 71 70 72 73 73 74 74 73 73 73 72 72 71 71 72 73 72 64 62 66 69 71 70 73 72 72
67 65 75 77 76 76 77 76 76 76 76 75 74 73 72 72 74 74 73 72 73 73 74 74 73 72 72 72 71 71 72 73 74 71 63 65 65 71 72 72 72 72 68
64 66 71 77 76 76 76 76 76 76 76 76 74 73 72 75 76 74 73 74 74 74 74 73 72 71 70 70 70 71 72 73 70 63 64 64 69 72 72 72 74 71 69
61 62 68 75 76 76 76 76 76 76 76 76 73 73 72 73 74 75 74 73 73 73 72 72 71 71 71 71 72 72 73 73 68 62 62 70 72 72 71 71 71 71 71
60 61 66 70 74 76 76 76 76 76 76 75 75 74 73 73 72 72 71 71 71 72 72 72 72 72 72 72 72 72 73 73 68 65 60 71 74 73 72 72 72 72 72
68 63 66 68 70 70 72 75 74 74 74 75 74 74 74 74 74 74 74 72 72 72 72 72 72 73 73 73 73 72 73 74 65 63 65 71 76 74 74 73 74 74 73
66 66 67 67 70 72 70 72 73 74 74 74 74 74 75 73 72 73 73 72 72 72 73 73 73 73 75 75 75 74 72 63 61 61 66 75 75 74 74 75 74 75 74
66 66 65 67 68 70 64 69 69 68 70 72 74 71 69 71 69 68 71 73 73 74 74 74 75 75 74 70 69 75 68 67 64 66 68 76 74 74 74 75 76 76 75
64 64 66 67 69 68 70 66 66 66 67 70 72 73 72 71 72 75 74 73 71 75 70 70 72 72 71 69 71 67 68 65 65 69 71 74 75 74 74 75 76 75 75
63 63 65 67 70 68 68 66 64 63 65 65 66 71 71 68 70 71 72 72 73 70 72 68 70 70 69 69 68 67 68 69 67 66 67 76 75 74 73 75 76 77 76
63 64 65 68 72 70 72 69 68 66 64 64 65 68 68 68 70 74 72 66 65 62 65 67 67 68 67 65 66 65 65 67 67 65 65 76 76 75 75 74 75 77 77
64 65 66 67 71 71 72 74 72 70 66 65 61 64 71 70 76 70 70 68 63 63 65 66 69 68 65 62 61 61 62 61 65 70 69 71 76 76 76 75 75 76 77
65 66 66 68 68 71 72 71 71 67 63 63 64 70 72 74 75 74 71 65 63 68 71 70 69 65 63 62 63 61 61 60 58 63 64 68 71 76 76 76 76 75 75
67 68 69 67 68 70 72 70 67 64 65 66 65 67 72 73 74 74 67 64 69 68 65 64 64 64 63 64 65 60 61 61 60 60 58 60 63 63 73 76 75 74 74
68 70 70 70 69 71 72 71 70 70 70 67 66 72 74 71 70 71 66 67 70 64 64 66 65 67 65 63 60 59 61 58 59 55 60 61 63 63 61 73 75 75 75
68 69 71 71 72 73 72 73 69 68 69 68 67 67 72 70 70 70 67 69 70 64 64 69 71 67 64 62 60 59 60 58 60 59 58 56 55 59 59 65 65 66 75
67 70 72 72 76 72 71 69 69 66 67 66 67 70 71 71 70 72 68 68 69 69 73 73 70 70 59 61 59 57 56 55 60 58 55 57 59 60 61 61 61 61 64
65 69 72 73 75 74 71 71 69 68 65 65 66 70 72 72 72 72 73 72 72 69 74 74 72 65 59 59 59 59 55 52 56 56 58 56 59 59 59 60 63 66 64
64 67 71 74 75 76 76 72 71 71 70 67 67 68 70 72 73 74 74 74 75 74 67 73 69 68 59 60 63 61 56 53 57 57 60 55 60 56 57 58 60 63 65
62 65 71 74 76 76 78 73 76 69 67 66 68 67 68 71 72 73 75 75 76 73 74 70 67 68 69 61 59 59 68 63 58 55 54 56 58 59 61 53 52 56 61
61 62 67 74 77 77 78 76 73 73 68 67 66 74 77 75 74 74 75 75 76 73 75 72 69 69 64 63 61 63 64 58 62 53 50 51 52 50 49 51 51 52 59
60 61 64 74 78 78 78 78 78 77 75 68 69 67 67 69 71 76 74 76 76 73 72 69 68 68 69 68 66 65 57 54 52 51 50 53 51 52 50 52 53 55 56

GFSSE_sfc_dewp_168.txt.gz
Dewpoint
71 73 76 77 77 77 77 77 77 77 77 77 77 77 77 77 77 76 77 77 75 76 75 76 75 75 75 75 75 75 75 74 74 73 74 74 74 73 72 71 72 70 73
72 74 76 78 77 76 77 77 77 77 77 77 77 76 77 76 76 75 76 75 75 76 75 75 75 74 75 74 74 74 74 74 74 73 73 72 73 73 73 72 74 72 73
71 73 73 77 77 76 77 77 77 76 77 77 77 76 76 75 75 75 75 74 74 75 75 74 75 75 74 74 73 73 72 73 74 74 73 71 70 73 73 71 72 73 73
69 70 71 77 77 77 76 77 76 76 76 76 76 76 76 76 75 74 75 75 75 74 75 75 73 74 74 73 74 73 72 72 72 73 72 71 64 74 73 71 73 73 73
68 69 73 77 77 76 76 77 77 76 76 76 76 76 75 74 73 73 73 73 73 74 74 73 73 73 73 72 71 71 72 74 74 73 70 69 67 72 72 73 72 73 73
68 69 75 77 76 76 77 76 76 77 76 75 75 74 74 75 74 73 72 73 74 74 74 74 73 73 72 71 71 71 73 74 73 71 70 68 66 73 73 73 73 70 72
65 67 72 77 77 76 76 77 76 77 76 75 74 74 75 76 74 74 75 75 74 74 73 73 72 71 70 70 71 73 75 73 71 69 70 66 70 74 73 73 73 71 69
63 67 71 76 77 77 76 76 76 76 75 74 73 73 74 75 75 74 73 73 73 72 72 71 71 71 71 71 72 73 75 75 68 67 69 70 73 74 73 73 74 72 71
62 66 71 72 75 76 76 76 76 76 76 74 73 73 73 73 73 73 73 73 72 72 72 72 73 73 73 73 74 75 75 75 70 67 68 70 75 75 73 72 72 72 73
62 65 70 73 72 72 74 76 76 75 75 75 75 74 74 73 73 73 75 75 73 72 72 73 73 75 75 76 76 76 76 75 67 69 70 71 75 76 74 73 74 74 73
62 66 69 71 74 75 73 73 75 74 74 75 75 75 75 75 73 74 75 75 73 73 74 73 74 75 75 75 76 77 76 69 66 70 72 75 76 76 75 75 75 76 75
65 66 66 68 71 72 65 73 73 71 73 75 75 75 75 75 74 72 74 76 76 76 76 75 75 75 74 71 71 76 72 71 69 71 72 76 76 77 76 77 77 76 76
65 66 66 69 73 70 68 70 70 70 72 75 77 78 77 75 76 73 73 73 74 76 72 73 73 72 73 71 72 71 71 69 68 69 71 76 77 77 76 77 77 77 76
66 65 64 70 74 71 71 68 71 69 72 71 74 76 77 74 76 77 73 74 77 75 74 71 72 73 70 70 71 71 70 69 69 68 72 77 77 77 76 77 77 77 77
66 66 67 72 75 76 77 76 75 72 70 71 73 74 74 75 77 72 75 74 75 73 73 72 72 72 71 69 71 67 64 64 66 70 70 77 76 76 76 76 76 76 77
65 67 68 71 74 76 77 79 78 76 75 72 71 73 76 77 77 76 75 74 71 72 72 73 74 73 72 70 68 68 67 66 64 67 69 72 76 75 77 77 76 76 75
66 67 67 70 72 75 76 77 77 75 69 72 71 74 76 78 78 79 75 75 73 74 75 76 76 73 71 68 70 66 66 66 64 66 65 64 67 77 77 76 76 75 75
66 69 70 66 70 73 74 75 74 72 72 71 72 74 76 77 77 78 73 72 74 75 73 73 71 71 71 70 70 69 68 67 66 65 65 66 65 62 74 77 76 75 75
70 71 72 72 71 72 75 74 74 74 74 72 72 73 75 75 74 75 74 75 74 73 73 71 73 73 70 70 66 65 68 65 65 61 64 65 66 66 66 75 76 75 75
70 72 73 74 75 75 74 76 73 71 72 73 72 73 75 75 74 75 73 77 74 73 74 75 77 75 70 69 62 62 67 66 66 66 65 61 64 64 65 67 71 70 74
68 72 73 74 77 75 74 72 72 70 71 71 71 75 78 75 75 77 74 74 75 75 75 76 75 73 69 70 66 65 64 65 65 61 62 63 63 65 64 66 70 66 65
69 71 74 74 77 75 74 74 73 72 70 70 72 76 75 75 76 76 77 75 76 75 77 75 75 72 69 68 67 65 63 62 61 60 65 62 63 63 62 61 64 66 67
68 71 73 75 75 76 75 75 75 77 74 74 74 75 75 76 77 78 78 78 78 78 76 76 74 71 67 68 68 66 63 60 62 64 62 62 65 63 62 63 63 64 67
65 70 73 75 76 76 76 75 74 71 70 71 74 74 72 76 76 76 78 78 79 77 77 74 73 71 71 66 67 68 68 67 63 59 62 62 63 59 63 61 59 60 63
64 67 70 75 75 76 76 76 74 74 71 71 71 74 77 77 76 75 77 77 78 78 78 75 72 70 69 70 68 67 67 65 64 60 55 54 55 57 58 59 56 59 60
62 64 68 73 75 76 76 76 76 75 73 72 72 73 74 74 75 76 76 78 79 77 75 72 72 72 71 71 70 70 66 62 60 59 56 54 54 53 54 55 58 61 61

GFSSE_sfc_dewp_171.txt.gz
Dewpoint
71 74 76 76 76 77 76 76 76 76 76 77 78 78 77 77 77 77 76 76 76 76 76 75 75 75 75 74 75 75 74 74 74 75 74 74 73 73 73 72 73 71 74
72 74 77 78 77 76 76 77 76 77 76 76 77 78 77 76 75 75 76 76 75 75 75 75 74 74 74 74 74 74 74 74 74 74 73 73 73 74 73 74 73 72 73
72 74 75 78 76 76 77 77 77 77 76 77 77 76 76 76 75 74 73 75 76 75 75 74 75 74 75 73 73 73 73 74 74 73 73 71 70 74 72 72 74 73 72
71 72 74 77 77 76 77 77 77 77 76 76 76 76 76 76 75 76 74 73 74 75 74 73 74 74 73 73 73 73 72 73 72 72 72 71 69 73 72 73 73 73 71
71 72 74 77 77 75 76 77 77 77 76 76 76 76 75 73 73 73 74 73 74 75 73 73 73 73 73 72 72 73 73 73 73 73 72 70 69 73 73 72 73 73 71
71 74 76 77 76 76 76 77 76 76 76 76 75 74 73 74 73 73 73 74 74 74 74 73 73 72 71 72 73 74 75 74 73 71 72 70 66 73 73 74 73 73 73
69 73 75 77 78 77 77 77 77 76 75 75 74 75 76 76 76 75 75 74 74 74 73 73 72 71 71 72 73 75 75 74 71 70 70 67 68 75 74 74 73 71 72
68 73 74 77 77 77 77 76 77 76 74 73 74 76 76 76 75 74 73 73 73 73 73 73 72 72 72 73 75 75 76 74 70 69 68 67 72 75 74 74 74 72 69
69 71 73 75 75 76 77 77 77 76 74 74 73 75 75 75 75 74 75 75 74 74 73 73 73 73 74 75 76 76 76 75 72 69 70 71 75 76 74 75 74 73 72
69 71 72 73 74 74 75 78 78 76 75 74 73 72 72 73 73 73 75 75 74 73 72 72 73 76 76 76 76 76 76 74 69 72 72 73 75 75 74 75 75 74 74
66 69 71 72 71 72 73 74 76 75 75 75 74 74 75 73 72 72 73 76 75 74 74 75 74 73 76 75 76 76 77 73 70 72 73 75 75 76 76 76 76 76 74
64 67 69 71 72 71 70 72 72 72 73 74 74 73 74 74 73 73 73 75 76 76 76 77 75 74 75 73 73 73 73 72 72 71 73 75 75 75 76 76 75 76 75
65 66 68 70 71 69 67 70 72 71 73 74 73 73 74 73 74 72 70 70 73 75 73 74 74 73 71 72 72 71 69 71 68 72 71 74 75 76 76 76 76 76 76
64 66 67 69 70 69 67 70 71 70 72 73 71 70 71 72 73 71 71 72 73 73 73 70 72 71 71 70 67 67 68 67 68 68 71 75 76 76 76 76 76 75 76
64 65 67 69 70 70 69 73 72 68 71 71 71 69 69 71 72 71 71 73 72 73 72 68 67 67 68 66 67 68 61 60 60 64 69 77 76 76 76 76 76 75 75
65 65 69 70 70 71 71 73 73 70 69 68 69 70 70 72 73 72 72 72 70 69 66 67 69 70 69 69 66 63 64 63 61 62 67 71 75 76 76 76 76 75 75
65 66 68 70 70 70 71 72 72 73 68 68 64 69 72 73 72 72 73 73 70 68 68 71 72 69 67 66 65 66 62 63 60 60 59 60 64 76 76 76 76 76 75
65 66 68 69 70 71 71 73 72 71 70 68 67 71 72 71 73 72 73 71 69 69 70 68 68 68 66 65 65 63 62 64 62 61 62 62 62 61 74 77 76 76 75
64 68 66 67 70 70 71 72 71 70 71 68 70 72 72 73 73 73 71 71 67 68 71 69 69 69 66 64 63 59 63 63 62 61 59 61 62 62 63 72 76 76 75
66 69 67 69 69 70 71 71 72 70 69 69 71 71 72 73 71 71 69 72 67 68 71 71 71 71 66 65 59 62 62 63 64 62 61 61 59 61 61 61 68 70 74
67 70 70 71 69 70 71 71 71 71 69 70 70 71 71 72 69 71 68 70 71 69 71 71 71 67 65 64 59 60 62 62 59 60 62 61 59 58 57 62 66 62 63
68 69 71 71 74 70 72 71 71 70 71 69 69 70 73 71 70 72 70 70 70 73 72 70 70 67 65 64 62 61 58 59 58 59 62 61 60 60 58 58 59 59 63
68 70 70 71 74 73 72 72 73 72 71 71 70 70 72 72 72 72 72 70 71 73 72 71 70 66 62 63 64 60 59 56 59 61 60 60 57 59 58 58 55 56 58
67 70 71 72 73 73 73 72 70 69 69 69 69 70 72 72 72 74 74 73 73 73 73 71 70 66 65 63 63 65 63 62 60 58 56 57 57 53 53 54 55 52 54
66 68 71 71 72 73 72 72 72 70 69 70 70 67 70 73 73 73 74 73 74 75 73 69 67 65 65 65 65 64 63 62 59 55 51 52 51 52 53 54 53 54 55
64 67 70 72 72 73 74 72 72 71 70 69 68 70 69 74 73 73 74 74 74 74 72 70 67 67 66 67 66 66 64 59 56 54 52 51 51 52 52 53 54 54 55

GFSSE_sfc_dewp_174.txt.gz
Dewpoint
70 74 76 77 76 76 76 75 75 76 76 77 78 78 77 77 76 76 76 76 76 76 75 75 75 75 74 75 74 74 74 74 75 74 74 74 73 73 73 74 73 71 73
72 74 76 77 76 76 76 76 76 76 76 77 77 76 76 76 75 76 76 75 75 75 75 74 74 74 74 75 75 74 74 74 74 73 73 73 73 73 74 73 73 72 73
73 75 75 77 77 76 76 76 76 76 76 76 76 75 75 75 73 74 75 76 75 74 73 75 74 74 74 74 74 74 73 72 72 72 72 71 72 73 74 74 73 72 71
73 74 75 77 77 76 76 77 77 76 76 76 76 75 76 75 76 73 74 75 75 74 74 74 73 72 73 74 74 73 73 72 71 71 72 71 69 72 72 73 73 72 73
72 74 75 77 76 75 75 76 76 76 77 76 76 76 74 73 75 74 73 73 75 74 72 73 73 73 72 72 72 72 72 72 73 73 73 70 69 71 73 73 73 72 72
73 74 76 76 75 76 76 76 76 76 76 75 74 71 71 72 73 73 74 74 73 73 74 73 73 71 71 71 72 73 72 72 72 71 72 72 70 73 73 73 74 73 72
74 74 74 77 76 76 76 76 75 74 74 73 73 75 75 73 73 74 74 74 74 74 73 72 71 71 71 71 72 73 74 72 70 70 70 69 67 75 74 74 73 74 74
73 75 75 77 76 76 76 77 75 73 73 73 76 76 74 75 75 75 74 74 74 74 73 72 72 72 72 72 73 75 74 73 71 70 70 69 69 74 74 75 73 72 72
73 73 75 75 75 76 76 76 75 74 73 73 75 75 75 74 72 73 73 73 73 73 73 72 73 73 74 74 75 76 75 73 72 70 70 71 71 74 74 74 74 72 70
72 73 74 74 75 75 75 77 77 74 73 73 73 74 74 74 73 73 76 76 74 73 73 73 73 75 75 76 76 76 76 73 69 71 71 72 73 73 73 75 75 74 72
71 71 73 73 73 74 75 76 77 75 75 74 73 73 74 71 71 72 73 73 73 73 74 75 75 75 75 76 74 76 77 73 70 72 70 72 73 72 74 75 75 75 74
69 70 72 72 72 73 73 73 73 72 73 74 73 73 73 73 73 72 74 75 74 75 76 77 76 75 75 74 72 74 69 73 72 72 71 72 70 73 74 74 75 75 74
68 69 70 71 71 71 69 71 71 71 73 73 73 72 73 74 73 75 71 68 71 75 74 74 74 73 72 71 72 72 69 68 71 73 72 74 73 75 74 74 74 74 75
66 67 69 70 71 69 68 69 71 70 72 72 73 72 72 71 72 72 71 71 72 73 72 72 72 71 71 71 70 69 68 68 67 69 71 75 75 75 75 74 74 74 74
65 65 68 69 71 70 66 69 70 70 71 71 72 70 71 71 71 71 71 73 72 73 72 71 69 67 68 69 67 67 67 62 60 62 69 75 76 75 75 75 75 74 74
64 65 67 69 70 70 69 72 73 69 70 71 71 69 69 70 71 71 72 71 70 71 70 66 68 70 70 67 65 64 63 62 61 61 66 71 76 76 76 76 75 75 75
64 66 67 68 69 69 70 72 71 72 69 68 67 69 69 69 71 71 71 72 70 69 67 70 70 67 65 64 64 64 62 63 62 61 59 60 62 73 76 76 75 75 75
65 67 67 67 68 69 70 72 71 71 70 68 66 69 70 72 72 71 71 72 71 68 69 67 68 66 66 63 64 62 60 63 61 60 61 60 62 61 69 75 76 76 75
66 68 67 68 68 69 70 71 71 70 70 70 69 70 71 72 71 72 70 71 68 68 69 69 69 68 67 63 61 59 61 62 63 62 61 61 61 62 62 70 74 76 76
66 67 67 69 69 69 70 70 71 69 68 68 68 70 72 71 72 72 71 70 68 69 69 70 69 69 66 64 59 59 60 63 61 61 62 61 60 59 58 60 66 69 74
66 66 66 68 69 69 70 69 69 69 69 68 68 70 71 72 72 70 69 69 70 68 71 70 70 67 64 64 59 59 60 61 59 59 62 61 59 58 57 57 63 62 63
64 67 66 67 69 69 68 69 69 70 70 69 69 69 71 71 71 69 69 68 69 70 71 71 70 67 66 63 60 60 57 58 58 59 60 60 57 57 57 53 54 54 56
64 66 68 68 68 68 69 70 71 70 70 69 70 69 71 73 71 71 71 69 68 72 71 70 70 67 64 62 63 60 59 57 59 60 60 56 54 52 53 53 54 53 53
66 66 68 70 71 69 72 70 69 70 69 68 68 70 70 72 71 71 71 71 70 72 72 71 70 66 64 61 62 64 63 60 59 57 55 55 54 52 52 54 53 53 54
66 66 67 69 72 72 71 71 70 69 69 70 70 68 69 71 71 71 72 72 72 72 72 71 68 65 64 63 64 63 63 61 59 56 50 51 52 52 53 53 53 54 54
66 68 68 69 69 72 71 71 71 69 69 69 68 69 68 69 71 72 72 73 72 73 73 69 68 66 65 66 65 65 64 59 56 53 51 50 51 52 53 53 53 54 57